Home   Weather   Bremerhaven   Past weeks

Flag for Germany Past Weather in Bremerhaven, Bremen, Germany — Yesterday and Last 2 Weeks

Now
52 °F

Passing clouds.


Feels Like: 47 °F
Forecast: 43 / 57 °F
Wind: 14 mph from East

Location: Nordholz

Current Time: Apr 30, 2017 at 10:33:45 pm

Latest Report: Apr 30, 2017 at 9:20 pm


Visibility: N/A

Pressure: 29.92 "Hg

Humidity: 50%

Dew Point: 34 °F

Location of BremerhavenLocation

Past Weather in Bremerhaven — Graph

°F

Bremerhaven Temperature Yesterday

Maximum temperature yesterday: 50 °F (at 5:20 pm)
Minimum temperature yesterday: 37 °F (at 12:20 am)
Average temperature yesterday: 44 °F

High & Low Weather Summary for the Past Weeks

 TemperatureHumidityPressure
High57 °F (Apr 30, 1:20 pm)100% (Apr 21, 7:10 am)30.63 "Hg (Apr 21, 7:10 am)
Low28 °F (Apr 19, 4:20 am)39% (Apr 19, 12:20 pm)29.56 "Hg (Apr 25, 5:36 am)
Average43 °F73%30.07 "Hg
* Reported Apr 15 8:20 pm — Apr 30 8:20 pm, Bremerhaven, Weather by CustomWeather, © 2017

Note: Actual official high and low records may vary slightly from our data, if they occured in-between our weather recording intervals... More about our weather records

Advertising

Bremerhaven Weather History for the Previous 24 Hours

Scroll right to see more
 ConditionsComfort  
Time TempWeatherWind HumidityBarometerVisibility
8:20 pm
Sun, Apr 30
54 °FPartly sunny.13 mph47%29.92 "HgN/A
7:20 pm55 °FScattered clouds.14 mph44%29.92 "HgN/A
6:20 pm57 °FScattered clouds.17 mph44%29.92 "HgN/A
5:20 pm57 °FPartly sunny.20 mph39%29.95 "HgN/A
4:20 pm57 °FScattered clouds.15 mph39%29.95 "HgN/A
3:20 pm57 °FScattered clouds.17 mph39%29.98 "HgN/A
2:20 pm57 °FPassing clouds.17 mph41%30.01 "HgN/A
1:20 pm57 °FPassing clouds.16 mph44%30.04 "HgN/A
12:20 pm54 °FPassing clouds.15 mph51%30.04 "HgN/A
11:20 am54 °FPassing clouds.17 mph47%30.07 "HgN/A
10:20 am50 °FPassing clouds.15 mph58%30.09 "HgN/A
9:20 am46 °FPassing clouds.12 mph66%30.09 "HgN/A
8:20 am41 °FPassing clouds.9 mph81%30.09 "HgN/A
7:20 am37 °FFog.8 mph93%30.12 "HgN/A
6:49 am36 °FFog.7 mph93%30.12 "HgN/A
6:20 am36 °FFog.7 mph93%30.09 "Hg0 mi
5:20 am36 °FFog.8 mph93%30.09 "Hg0 mi
4:20 am36 °FFog.6 mph93%30.09 "Hg0 mi
3:20 am37 °FFog.6 mph87%30.09 "HgN/A
2:20 am37 °FChilly.7 mph93%30.09 "HgN/A
1:20 am37 °FChilly.5 mph87%30.09 "HgN/A
12:20 am39 °FChilly.5 mph87%30.09 "HgN/A
11:20 pm
Sat, Apr 29
41 °FQuite cool.5 mph87%30.09 "HgN/A
10:20 pm39 °FChilly.2 mph87%30.09 "HgN/A
Weather by CustomWeather, © 2017

See weather overviewHow to use our weather pages